星链-4410 (STARLINK-4410 )

导读

STARLINK-4410是美国太空探索技术公司SpaceX星链星座中的一颗卫星,于2022年7月22日发射入轨。星链星座旨在构建全球卫星互联网,该卫星承担低轨通信服务任务,运行在近地轨道,为全球偏远地区、海洋等网络覆盖薄弱区域提供宽带互联网接入支持,是星链全球组网进程中的组成单元。

基本信息
目录编号:
53204
目录名称:
STARLINK-4410
国际标识:
2022-084R
轨道中心:
EARTH
卫星名称:
星链-4410
卫星全名:
星链-4410 (STARLINK-4410 )
卫星状态:
在轨 (已飞行1505 天)
发射日期:
2022-07-22 UTC
国别 :
美国 (US)
星等 :
--
轨道信息
数据来源 国际轨道数据
星历时间: 2026-09-03T12:12:54+0800
1天前
查看轨道信息
半长轴: 6833.24km
偏心率: 0.0000736
轨道倾角: 97.508°
近地点辐角 121.615°
升交点赤经 309.693°
平近点角 238.517°
近地点: 454.6km
远地点: 455.606km
周期: 93.691分钟
每日圈数: 15.369608
详细信息
固有亮度:
5
最大亮度:
2.5
卫星平台:
Starlink v1.5
覆盖范围:
全球
运营商:
太空探索技术公司
运营商所在国:
美国
制造商(研发单位):
太空探索技术公司
制造商所在国:
美国
使用方式:
暂无
卫星简介
星链(Starlink)计划是由太空探索技术公司(SpaceX)提出的一个巨型低轨卫星互联网星座项目,计划在2019年至2024年间在太空搭建由约1.2万颗卫星组成的“星链”网络,其中1584颗将部署在地球上空550千米处的近地轨道,并从2020年开始工作。该卫星仍在工作。
2D轨道图
3D轨道图
轨道高度分析图
轨道倾角分析图
轨道综合分析图
查看轨道综合分析图
交会数据列表
事件ID 空间交会对象 最接近时刻(TCA) 交会距离 交会风险概率(CRP) 交会风险指数(CRI) 操作
CDM_260906-074505-267605-320421
2026-09-06T
07:45:48+0000
1.461 km
极远距离
6.35331E-6 低风险 0.51
CDM_260905-123605-320405-373622
2026-09-05T
12:36:01+0000
2.232 km
极远距离
2.179828E-6 低风险 0.42